Flight Track Log - Related Links

Times and Time Zones

All times are in EDT time to prevent confusion due to time zone crossing. See the FLG3738 flight status page for this flight to view local times or setup timezone preferences in your user account.

Time Position Orientation Groundspeed Altitude Reporting Facility
EDT Latitude Longitude Course Direction KTS MPH feet Rate Location/Type
Thu 01:20:08 PM 44.9000 -93.2333 66° East 169 194 2,200  Level Minneapolis TRACON
Thu 01:20:58 PM 44.9442 -93.2639 334° Northwest 186 214 3,800 1,982 Climbing Minneapolis Center
Thu 01:22:00 PM 44.9706 -92.8563 69° East  Level FlightAware Approximate
Thu 01:22:00 PM 44.9983 -93.2364 20° North 229 264 5,900  Level Minneapolis Center
Thu 01:23:00 PM 45.0031 -92.7343 69° East  Level FlightAware Approximate
Thu 01:23:02 PM 45.0506 -93.1697 42° Northeast 250 288 8,500  Level Minneapolis Center
Thu 01:24:00 PM 45.0381 -92.6137 66° East  Level FlightAware Approximate
Thu 01:24:04 PM 45.0919 -93.0797 57° Northeast 277 319 10,900  Level Minneapolis Center
Thu 01:25:00 PM 45.0749 -92.4941 66° East  Level FlightAware Approximate
Thu 01:25:06 PM 45.1256 -92.9600 68° East 326 375 12,100  Level Minneapolis Center
Thu 01:26:08 PM 45.1656 -92.8092 69° East 340 391 14,600 1,935 Climbing Minneapolis Center
Thu 01:27:10 PM 45.2006 -92.6797 69° East 350 403 16,100 1,161 Climbing Minneapolis Center
Thu 01:28:12 PM 45.2372 -92.5453 69° East 366 421 17,000 435 Climbing Minneapolis Center
Thu 01:29:14 PM 45.2750 -92.4006 70° East 390 449 17,000  Level Minneapolis Center
Thu 01:30:16 PM 45.3092 -92.2575 71° East 385 443 17,000  Level Minneapolis Center
Thu 01:31:19 PM 45.3278 -92.1119 80° East 375 432 17,000  Level Minneapolis Center
Thu 01:32:21 PM 45.3314 -91.9397 88° East 372 428 17,000  Level Minneapolis Center
Thu 01:33:22 PM 45.3058 -91.8306 108° East 369 425 17,000  Level Minneapolis Center
Thu 01:34:25 PM 45.2661 -91.6644 109° East 371 427 17,000  Level Minneapolis Center
Thu 01:35:27 PM 45.2317 -91.5222 109° East 377 434 17,000  Level Minneapolis Center
Thu 01:36:29 PM 45.1983 -91.3792 108° East 381 438 17,000  Level Minneapolis Center
Thu 01:37:31 PM 45.1619 -91.2258 109° East 385 443 17,000  Level Minneapolis Center
Thu 01:38:33 PM 45.1269 -91.0822 109° East 386 444 17,000  Level Minneapolis Center
Thu 01:39:35 PM 45.0858 -90.9131 109° East 384 442 17,000  Level Minneapolis Center
Thu 01:40:37 PM 45.0519 -90.7728 109° East 388 447 17,000 -774 Level Minneapolis Center
Thu 01:41:39 PM 45.0169 -90.6292 109° East 374 430 15,400 -1,839 Descending Minneapolis Center
Thu 01:42:41 PM 44.9847 -90.4958 109° East 348 400 13,200 -1,935 Descending Minneapolis Center
Thu 01:43:43 PM 44.9492 -90.3725 112° Southeast 326 375 11,400 -1,597 Descending Minneapolis Center
Thu 01:44:45 PM 44.9128 -90.2647 115° Southeast 296 341 9,900 -1,548 Descending Minneapolis Center
Thu 01:45:47 PM 44.8764 -90.1678 118° Southeast 274 315 8,200 -1,536 Descending Minneapolis Center
Thu 01:46:50 PM 44.8347 -90.0978 130° Southeast 245 282 6,700 -1,536 Descending Minneapolis Center
Thu 01:47:52 PM 44.7928 -90.0294 131° Southeast 223 257 5,000 -1,645 Descending Minneapolis Center
Thu 01:48:54 PM 44.7567 -89.9628 127° Southeast 214 246 3,300 -1,645 Descending Minneapolis Center

Login

Don't have an account? Register now (free) for customized features, flight alerts, and more!